Gainesville, FL

2:32 PM EDT on October 22, 2017 (GMT -0400)
Gainesville Regional

Weather History for KGNV - September, 2012

Change the Weather History Date:

Wednesday, September 5, 2012

  Actual Average Record
Temperature  
Mean Temperature 81 °F 80 °F  
Max Temperature 91 °F 89 °F 97 °F (1925)
Min Temperature 71 °F 71 °F 63 °F (1891)
Degree Days  
Heating Degree Days 0 0  
Month to date heating degree days 0 0  
Since 1 July heating degree days 0 0  
Cooling Degree Days 16 15  
Month to date cooling degree days 85 75  
Year to date cooling degree days 2343 2019  
Growing Degree Days 31 (Base 50)    
Moisture  
Dew Point 69 °F    
Average Humidity 69    
Maximum Humidity 94    
Minimum Humidity 44    
Precipitation  
Precipitation 0.00 in 0.17 in 4.95 in (2004)
Month to date precipitation 0.30 0.87  
Year to date precipitation 42.41 36.44  
Snow  
Snow 0.00 in 0.00 in 0.00 in ()
Month to date snowfall 0.0 0.0  
Since 1 July snowfall 0.0 0.0  
Since 1 September snowfall 0.0 0.0  
Snow Depth 0.00 in    
Sea Level Pressure  
Sea Level Pressure 29.95 in    
Wind  
Wind Speed 5 mph (SSW)    
Max Wind Speed 14 mph    
Max Gust Speed 17 mph    
Visibility 9 miles    
Events      
T = Trace of Precipitation, MM = Missing Value Source: NWS Daily Summary

Daily Weather History Graph

Daily Weather History Graph

Search for Another Location

Airport or City:

Trip Planner

Search our weather history database for the weather conditions in past years. The results will help you decide how hot, cold, wet, or windy it might be!

Date:

Astronomy

Sep. 05, 2012 Rise Set
Actual Time 7:08 AM EDT 7:45 PM EDT
Civil Twilight 6:44 AM EDT 8:10 PM EDT
Nautical Twilight 6:16 AM EDT 8:38 PM EDT
Astronomical Twilight 5:47 AM EDT 9:07 PM EDT
Moon 10:43 PM EDT (9/5) 11:44 AM EDT (9/5)
Length of Visible Light 13h 25m
Length of Day
12h 37m
Waning Gibbous, 76% of the Moon is Illuminated
Sep 5
Waning Gibbous
Sep 8
Last Quarter
Sep 15
New
Sep 22
First Quarter
Sep 29
Full

Hourly Weather History & Observations

Time (EDT) Temp. Heat Index Dew Point Humidity Pressure Visibility Wind Dir Wind Speed Gust Speed Precip Events Conditions
12:53 AM 75.0 °F - 73.0 °F 94% 29.98 in 10.0 mi Calm Calm - N/A   Clear
1:53 AM 75.9 °F - 73.0 °F 91% 29.96 in 10.0 mi Calm Calm - N/A   Clear
2:53 AM 73.0 °F - 71.1 °F 93% 29.95 in 7.0 mi Calm Calm - N/A   Clear
3:53 AM 73.0 °F - 71.1 °F 93% 29.94 in 10.0 mi Calm Calm - N/A   Partly Cloudy
4:53 AM 73.9 °F - 71.1 °F 91% 29.94 in 10.0 mi Calm Calm - N/A   Clear
5:53 AM 72.0 °F - 70.0 °F 93% 29.94 in 5.0 mi Calm Calm - N/A   Clear
6:53 AM 72.0 °F - 70.0 °F 93% 29.95 in 8.0 mi Calm Calm - N/A   Clear
7:53 AM 73.0 °F - 71.1 °F 93% 29.96 in 4.0 mi Calm Calm - N/A   Clear
8:53 AM 78.1 °F - 73.0 °F 84% 29.96 in 10.0 mi SSW 3.5 mph - N/A   Clear
9:53 AM 82.0 °F 86.7 °F 72.0 °F 71% 29.98 in 10.0 mi South 8.1 mph - N/A   Clear
10:53 AM 84.9 °F 89.4 °F 70.0 °F 61% 29.99 in 10.0 mi South 9.2 mph - N/A   Partly Cloudy
11:53 AM 87.1 °F 92.0 °F 70.0 °F 57% 29.98 in 10.0 mi South 6.9 mph - N/A   Scattered Clouds
12:53 PM 88.0 °F 92.9 °F 70.0 °F 55% 29.97 in 10.0 mi South 6.9 mph - N/A   Partly Cloudy
1:53 PM 89.1 °F 92.9 °F 68.0 °F 50% 29.95 in 10.0 mi SSW 10.4 mph - N/A   Mostly Cloudy
2:53 PM 89.1 °F 92.9 °F 68.0 °F 50% 29.94 in 10.0 mi Variable 6.9 mph - N/A   Mostly Cloudy
3:53 PM 90.0 °F 91.7 °F 64.9 °F 43% 29.92 in 10.0 mi SSW 6.9 mph - N/A   Overcast
4:53 PM 90.0 °F 91.7 °F 64.9 °F 43% 29.91 in 10.0 mi WSW 9.2 mph - N/A   Partly Cloudy
5:53 PM 88.0 °F 92.1 °F 69.1 °F 53% 29.91 in 10.0 mi West 12.7 mph - N/A   Scattered Clouds
6:53 PM 86.0 °F 88.8 °F 66.9 °F 53% 29.92 in 10.0 mi WSW 6.9 mph - N/A   Clear
7:53 PM 82.0 °F 83.8 °F 64.9 °F 56% 29.94 in 10.0 mi SSW 5.8 mph - N/A   Clear
8:53 PM 79.0 °F - 66.9 °F 66% 29.95 in 10.0 mi SW 4.6 mph - N/A   Clear
9:53 PM 78.1 °F - 69.1 °F 74% 29.96 in 10.0 mi SSW 5.8 mph - N/A   Clear
10:53 PM 78.1 °F - 69.1 °F 74% 29.96 in 10.0 mi SSW 4.6 mph - N/A   Clear
11:53 PM 75.0 °F - 70.0 °F 84% 29.96 in 10.0 mi WSW 3.5 mph - N/A   Clear